Regional Weather Roundup
Issued by NWS

Home | Current Version | Previous Version | Text Only | Print | Product List | Glossary On
Versions: 1 2 3 4 5 6 7 8 9 10 11 12 13 14 15 16 17 18 19 20 21 22 23 24 25 26 27 28 29 30 31 32 33 34 35 36 37 38 39 40 41 42 43 44 45 46 47 48 49 50
000
ASUS42 KTBW 190215
RWRFL
FLORIDA REGIONAL WEATHER ROUNDUP
NATIONAL WEATHER SERVICE TAMPA BAY RUSKIN FL
900 PM EST SAT NOV 18 2017

NOTE: "FAIR" INDICATES FEW OR NO CLOUDS BELOW 12,000 FEET WITH NO
SIGNIFICANT WEATHER AND/OR OBSTRUCTIONS TO VISIBILITY.

FLZ001>010-012>015-112-114-115-190300-
PANHANDLE FLORIDA

CITY           SKY/WX    TMP DP  RH WIND       PRES   REMARKS
PENSACOLA      CLEAR     73  66  78 SW12      29.86S
PENSACOLA NAS  CLEAR     74  67  78 SW12G22   29.86S
MILTON NAS     PTCLDY    70  68  93 SW10      29.85
CRESTVIEW      CLEAR     71  65  81 SW13      29.86F
DUKE FIELD     FAIR      71  65  82 S12       29.85F
VALPARAISO     PTCLDY    72  66  83 SW7       29.86R
MARY ESTHER    PTCLDY    73  68  86 SW9       29.85F
PANAMA CITY    FAIR      70  64  81 S7        29.88F
TYNDALL AFB    PTCLDY    72  67  83 SW12      29.90F
APALACHICOLA   CLEAR     71  66  84 SW10      29.92F

STATION/POSITION SKY/WX   TEMP    WIND        PRES    WAVE   SWELL
                          AIR SEA DIR/SP/G            HT/PER HT/PER
                          (F)     (DEG/KT/KT) (MB)    (FT/S) (FT/S)
29.2N   88.2W              77 78  220/ 17/ 21 1012.9F   5/ 6
28.8N   86.0W              75 78  200/ 14/ 17 1013.5R   2/ 4
PANAMA CITY BEAC NOT AVBL
TOWER C                    73     230/ 17/ 19 1014.1F
28.5N   84.5W              74 76  220/ 12/ 12 1013.9R   1/ 4

$$
FLZ011-016>038-118-127-128-134-139-239-190300-
NORTH FLORIDA

CITY           SKY/WX    TMP DP  RH WIND       PRES   REMARKS
MARIANNA       CLEAR     68  64  87 S10       29.86F
TALLAHASSEE    PTCLDY    65  60  84 S7        29.90F
PERRY          FOG       60  59  96 CALM      29.94F VSB 1/2
LIVE OAK       PTCLDY    61  61 100 CALM      29.94S
CROSS CITY     CLEAR     57  57  98 S3        29.99S
LAKE CITY      FAIR      63  59  88 SW5       29.94S
GAINESVILLE    CLEAR     62  56  80 SW5       29.97F
WILLISTON      CLEAR     59  57  94 CALM      29.96S
PALATKA        FAIR      61  57  88 W5        29.95F
MAYPORT NAS    CLEAR     61  55  81 SW6       29.92S
JACKSONVILLE   CLEAR     66  57  72 SW8       29.92S
JAX NAS        CLEAR     68  56  65 SW8       29.93S
JAX CECIL      CLEAR     64  57  77 VRB5      29.93S
ST AUGUSTINE   CLEAR     65  56  72 SW5       29.95S
PALM COAST     FAIR      63  56  80 CALM      29.95S

STATION/POSITION SKY/WX   TEMP    WIND        PRES    WAVE   SWELL
                          AIR SEA DIR/SP/G            HT/PER HT/PER
                          (F)     (DEG/KT/KT) (MB)    (FT/S) (FT/S)
SHELL POINT      NOT AVBL
KEATON BEACH               65     150/  4/  4 1013.4F
CEDAR KEY                  68     220/  5/  6 1014.6F
FERNANDINA       NOT AVBL
30.7N   81.3W                 67                N/A     2/11   2/11
MAYPORT          NOT AVBL
31.4N   80.9W              70 69  190/ 16/ 17 1011.9S   3/ 4   2/10
ST AUGUSTINE               65 69  240/  5/  6 1014.1S

$$
FLZ040-043>046-052-053-057-058-063-144-190300-
INTERIOR CENTRAL FLORIDA

CITY           SKY/WX    TMP DP  RH WIND       PRES   REMARKS
OCALA          CLEAR     58  55  90 CALM      29.97S
THE VILLAGES     N/A     63  57  82 CALM      29.87S
LEESBURG       CLEAR     66  60  81 W3        29.97S
SANFORD        CLEAR     65  55  70 W6        29.96R
ORLANDO EXEC   CLEAR     70  57  63 NW6       29.96R
ORLANDO INTL   CLEAR     66  57  72 W6        29.97R
KISSIMMEE      CLEAR     65  58  78 NW5       29.98R
WINTER HAVEN   CLEAR     67  58  72 CALM      29.98S
LAKELAND       CLEAR     63  55  77 CALM      29.98R
BARTOW         FAIR      63  57  82 W5        29.98R
SEBRING        FAIR      67  57  69 CALM      29.97S
OKEECHOBEE     MOCLDY    63  61  94 CALM      29.97R

$$
FLZ041-047-054-059-064-141-147-190300-
EAST CENTRAL FLORIDA

CITY           SKY/WX    TMP DP  RH WIND       PRES   REMARKS
DAYTONA BEACH  CLEAR     64  60  87 SW5       29.96R
DELAND         CLEAR     66  55  68 W3        29.96R
NEW SMYRNA BEA PTCLDY    64  59  82 CALM      29.96S
JFK SPACE CTR  CLEAR     64  62  93 CALM      29.95R
TITUSVILLE     PTCLDY    64  63  94 S7        29.96S
CAPE CANAVERAL CLEAR     66  62  89 S3        29.95R
PATRICK AFB    CLEAR     69  63  80 SE6       29.96R
MELBOURNE      PTCLDY    70  61  73 S5        29.96R
VERO BEACH     PTCLDY    65  62  90 CALM      29.97S
FT PIERCE      CLEAR     63  63 100 CALM      29.97R
STUART         CLEAR     70  64  83 S3        29.98R

STATION/POSITION SKY/WX   TEMP    WIND        PRES    WAVE   SWELL
                          AIR SEA DIR/SP/G            HT/PER HT/PER
                          (F)     (DEG/KT/KT) (MB)    (FT/S) (FT/S)
28.5N   80.2W              75 78  180/  8/ 10 1014.2S   4/11   3/11
TRIDENT PIER     NOT AVBL
27.5N   80.2W                 75                N/A     3/13   2/13

$$
FLZ050-056-061-142-242-148-248-149-249-151-251-155-255-
160-260-190300-
WEST CENTRAL FLORIDA

CITY           SKY/WX    TMP DP  RH WIND       PRES   REMARKS
CRYSTAL RIVER  FAIR      55  54  94 CALM      29.97S
INVERNESS      FAIR      55  55 100 CALM      29.97S
BROOKSVILLE    PTCLDY    58  56  93 CALM      29.98R
CLEARWATER AIR FAIR      64  59  82 CALM      29.97R
ST PETE CLEARW CLEAR     67  61  81 SW6       29.97S
TAMPA INTL     PTCLDY    70  62  76 VRB5      29.98R
TAMPA EXEC     CLEAR     55  55 100 CALM      29.98R
PLANT CITY     CLEAR     63  55  77 CALM      30.00R
MACDILL AFB    CLEAR     62  62  98 S3        29.97R
PETER O KNIGHT   N/A     68  61  77 CALM      29.98R
ST PETERSBURG  MOCLDY    70  62  76 W5        29.95S
SARASOTA       CLEAR     64  62  93 CALM      29.96S
VENICE         FAIR      64  61  88 CALM      29.98S

STATION/POSITION SKY/WX   TEMP    WIND        PRES    WAVE   SWELL
                          AIR SEA DIR/SP/G            HT/PER HT/PER
                          (F)     (DEG/KT/KT) (MB)    (FT/S) (FT/S)
CLEARWATER BEACH NOT AVBL
MIDDLE TAMPA BAY NOT AVBL
VENICE                     73 73  270/  4/  4 1015.1R

$$
FLZ066-069-070-075>078-162-262-165-265-190300-
SOUTHWEST FLORIDA AND KEYS

CITY           SKY/WX    TMP DP  RH WIND       PRES   REMARKS
PUNTA GORDA    CLEAR     63  58  83 CALM      29.99S
FT MYERS       CLEAR     70  62  76 CALM      29.97S
SOUTHWEST INTL CLEAR     68  63  84 NW3       29.98R
NAPLES         CLEAR     71  62  73 CALM      29.97S
MARCO ISLAND   CLEAR     69  64  84 NW3       29.98S
IMMOKALEE      MOCLDY    63  61  94 CALM      29.99R
MARATHON       CLEAR     73  67  81 N3        29.97R
KEY WEST NAS   PTCLDY    73  71  93 NE5       29.97S
KEY WEST INTL  CLEAR     73  69  87 N5        29.98R

STATION/POSITION SKY/WX   TEMP    WIND        PRES    WAVE   SWELL
                          AIR SEA DIR/SP/G            HT/PER HT/PER
                          (F)     (DEG/KT/KT) (MB)    (FT/S) (FT/S)
NAPLES           NOT AVBL
DRY TORTUGAS               76     110/  1/  3 1015.3R
SAND KEY                   76                 1015.5R
MOLASSES REEF              77 80   CALM  /  2 1015.2R

$$
FLZ067-068-071>074-168-172>174-190300-
SOUTHEAST FLORIDA

CITY           SKY/WX    TMP DP  RH WIND       PRES   REMARKS
W PALM BEACH   PTCLDY    72  63  73 CALM      29.97S
BOCA RATON     MOCLDY    73  66  78 CALM      29.97R
FT LAUDER-EXEC PTCLDY    72  66  81 NW3       29.97R
FT LAUDERDALE  MOCLDY    74  66  76 CALM      29.96R
POMPANO BEACH  MOCLDY    74  65  73 NW5       29.97R
PEMBROKE PINES CLEAR     73  65  75 NW3       29.98R
OPA LOCKA      CLEAR     72  67  84 CALM      29.97S
MIAMI          PTCLDY    75  65  70 CALM      29.97R
WEST KENDALL   CLEAR     68  65  90 CALM      29.97R
HOMESTEAD      CLEAR     70  69  95 CALM      29.97R

STATION/POSITION SKY/WX   TEMP    WIND        PRES    WAVE   SWELL
                          AIR SEA DIR/SP/G            HT/PER HT/PER
                          (F)     (DEG/KT/KT) (MB)    (FT/S) (FT/S)
PORT EVERGLADES            76     310/  5/  6 1014.7R
FOWEY ROCKS                77 78  120/  6/  7 1015.5R
SETTLEMENT POINT           75      80/ 10/ 11 1015.1R

$$




USA.gov is the U.S. government's official web portal to all federal, state and local government web resources and services.